Location: Praha
(50.0830°N, 14.4670°E)
Time: 15:45:25
(UTC+01:00)

ISS - Pass Details

Date: 05 December 2018
Orbit: 401 x 408 km, 51.6° (Epoch: 12 December)

Event Time Altitude Azimuth Distance (km) Brightness Sun altitude
Rises 16:59:03 0° 270° (W) 2,317 1.4 -8.9°
Reaches altitude 10° 17:01:08 10° 273° (W) 1,457 0.1 -9.2°
Maximum altitude 17:04:23 64° 356° (N) 449 -3.7 -9.7°
Enters shadow 17:06:59 15° 78° (ENE) 1,198 -2.1 -10.1°
